星链-3228 (STARLINK-3228 )

导读 | 星芒AI

STARLINK-3228 是 SpaceX Starlink 卫星互联网项目中的一颗低轨卫星,属于 Starlink 群体部署的一部分。该卫星旨在为全球用户提供高速、低延迟的互联网服务,尤其关注网络覆盖不足的地区。它运行在约 550 公里的轨道高度,采用先进的通信技术,支持宽带数据传输。作为 Starlink 计划的组成部分,STARLINK-3228 有助于构建一个全球性的卫星通信网络,提升全球互联网接入能力。

基本信息
目录编号:
49731
目录名称:
STARLINK-3228
国际标识:
2021-115H
轨道中心:
EARTH
卫星名称:
星链-3228
卫星全名:
星链-3228 (STARLINK-3228 )
卫星状态:
已陨落 最后检测时间 2024-04-27
发射日期:
2021-12-02 UTC
国别 :
美国 (US)
星等 :
--
轨道信息
数据来源 国际轨道数据
星历时间: 2024-04-28T03:50:27+0800
轨道信息已过期558天
半长轴: 6509.463km
偏心率: 0.0012331
轨道倾角: 53.192°
近地点辐角 154.682°
升交点赤经 287.667°
平近点角 302.869°
近地点: 123.301km
远地点: 139.355km
周期: 87.112分钟
每日圈数: 16.530463
详细信息
固有亮度:
5
最大亮度:
2.5
卫星平台:
Starlink v1.5
覆盖范围:
全球
运营商:
太空探索技术公司
运营商所在国:
美国
制造商(研发单位):
太空探索技术公司
制造商所在国:
美国
使用方式:
暂无
卫星简介
星链(Starlink)计划是由太空探索技术公司(SpaceX)提出的一个巨型低轨卫星互联网星座项目,计划在2019年至2024年间在太空搭建由约1.2万颗卫星组成的“星链”网络,其中1584颗将部署在地球上空550千米处的近地轨道,并从2020年开始工作。该卫星已陨落。